Skip Page Navigation
NASA JPL Caltech
NASA Logo - Jet Propulsion Laboratory + View the NASA Portal
+ Near-Earth Object (NEO) Program
Search JPL
JPL Home Earth Solar System Stars & Galaxies Technology
JPL Solar System Dynamics
BODIES ORBITS EPHEMERIDES TOOLS PHYSICAL DATA DISCOVERY FAQ SITE MAP
JPL Small-Body Database Browser
Search: [ help ]  
349068 (2006 YT13)
Classification: Apollo [NEO, PHA]          SPK-ID: 2349068
Ephemeris | Orbit Diagram | Orbital Elements | Physical Parameters | Discovery Circumstances | Close-Approach Data ]

[ hide orbit diagram ]
Orbit Diagram
Note: Make sure you have Java enabled on your browser to see the applet. This applet is provided as a 3D orbit visualization tool. The applet was implemented using 2-body methods, and hence should not be used for determining accurate long-term trajectories (over several years or decades) or planetary encounter circumstances. For accurate long-term ephemerides, please instead use our Horizons system.
Orbit Viewer

Additional Notes: the orbits shown in the applet are color coded. The planets are white lines, and the asteroid/comet is a blue line. The bright white line indicates the portion of the orbit that is above the ecliptic plane, and the darker portion is below the ecliptic plane. Likewise for the asteroid/comet orbit, the light blue indicates the portion above the ecliptic plane, and the dark blue the portion below the ecliptic plane.

Orbit Viewer applet originally written and kindly provided by Osamu Ajiki (AstroArts), and further modified by Ron Baalke (JPL).


Orbital Elements at Epoch 2456400.5 (2013-Apr-18.0) TDB
Reference: JPL 43 (heliocentric ecliptic J2000)
 Element Value Uncertainty (1-sigma)   Units 
e .4259358758832905 4.7933e-07  
a 1.323197383039991 9.0005e-09 AU
q .7596001467283745 6.3589e-07 AU
i 38.2423861594047 3.1382e-05 deg
node 116.7439944702825 6.2957e-06 deg
peri 105.4992173608585 5.4876e-05 deg
M 4.712389933426756 1.8711e-05 deg
tp 2456393.222636041011
(2013-Apr-10.72263604)
2.8847e-05 JED
period 555.9495420046865
1.52
5.6724e-06
1.553e-08
d
yr
n .6475407798734463 6.6069e-09 deg/d
Q 1.886794619351607 1.2834e-08 AU
  Orbit Determination Parameters
   # obs. used (total)      203  
   data-arc span      2237 days (6.12 yr)  
   first obs. used      2006-12-26  
   last obs. used      2013-02-09  
   planetary ephem.      DE405  
   SB-pert. ephem.      SB405-CPV-2  
   condition code      0  
   fit RMS      .54643  
   data source      ORB  
   producer      Otto Matic  
   solution date      2013-May-02 01:51:14  

Additional Information
 Earth MOID = .0373323 AU 
 T_jup = 4.649 
[ show covariance matrix ]

Ephemeris | Orbit Diagram | Orbital Elements | Physical Parameters | Discovery Circumstances | Close-Approach Data ]

Physical Parameter Table
Parameter Symbol Value Units Sigma Reference Notes
absolute magnitude H 18.313 mag .38898 43 autocmod 2.5c
rotation period rot_per 2.433 h n/a Asteroid Lightcurve DataBase (Rev. 2013-May-01) Published Reference List:
[Warner, B.D. (2013) http://www.minorplanetobserver.com/PDO/PDOLig htcurves.htm]

349068 (2006 YT13)          Discovered 2006-Dec-26 by CSS at Catalina (703)
Reference: 20121228/Numbers.arcLast Updated: 2013-01-02

[ show close-approach data ]
Ephemeris | Orbit Diagram | Orbital Elements | Physical Parameters | Discovery Circumstances | Close-Approach Data ]
ABOUT SSD CREDITS/AWARDS PRIVACY/COPYRIGHT GLOSSARY LINKS
FirstGov 2013-May-23 00:06 UT
(server date/time)  
NASA Home Page
Site Manager:   Donald K. Yeomans
Webmaster  Alan B. Chamberlin